TimeEDT,TemperatureF,Dew PointF,Humidity,Sea Level PressureIn,VisibilityMPH,Wind Direction,Wind SpeedMPH,Gust SpeedMPH,PrecipitationIn,Events,Conditions,WindDirDegrees,DateUTC
12:53 AM,37.9,36.0,93,30.38,10.0,Calm,Calm,-,N/A,,Clear,0,2013-09-18 04:53:00
1:53 AM,37.9,35.1,89,30.37,10.0,Calm,Calm,-,N/A,,Clear,0,2013-09-18 05:53:00
2:53 AM,37.0,35.1,93,30.36,10.0,Calm,Calm,-,N/A,,Clear,0,2013-09-18 06:53:00
3:53 AM,36.0,34.0,93,30.36,10.0,Calm,Calm,-,N/A,,Clear,0,2013-09-18 07:53:00
4:53 AM,36.0,34.0,93,30.35,10.0,Calm,Calm,-,N/A,,Clear,0,2013-09-18 08:53:00
5:53 AM,36.0,33.1,89,30.35,10.0,Calm,Calm,-,N/A,,Clear,0,2013-09-18 09:53:00
6:53 AM,36.0,33.1,89,30.36,10.0,NNW,3.5,-,N/A,,Clear,330,2013-09-18 10:53:00
7:53 AM,45.0,39.0,80,30.36,10.0,NNW,3.5,-,N/A,,Clear,340,2013-09-18 11:53:00
8:53 AM,51.1,41.0,68,30.35,10.0,West,4.6,-,N/A,,Clear,280,2013-09-18 12:53:00
9:53 AM,55.0,39.9,57,30.35,10.0,West,4.6,-,N/A,,Clear,280,2013-09-18 13:53:00
10:53 AM,57.0,37.9,49,30.34,10.0,SW,4.6,-,N/A,,Clear,220,2013-09-18 14:53:00
11:53 AM,61.0,41.0,48,30.32,10.0,NW,3.5,-,N/A,,Clear,310,2013-09-18 15:53:00
12:53 PM,62.1,44.1,52,30.30,10.0,Variable,4.6,-,N/A,,Clear,0,2013-09-18 16:53:00
1:53 PM,64.0,43.0,46,30.28,10.0,SSW,6.9,-,N/A,,Clear,200,2013-09-18 17:53:00
2:53 PM,64.0,37.9,38,30.27,10.0,Variable,6.9,-,0.01,,Clear,0,2013-09-18 18:53:00
3:53 PM,64.0,30.9,29,30.25,10.0,SSW,4.6,-,N/A,,Clear,210,2013-09-18 19:53:00
4:53 PM,64.0,37.9,38,30.24,10.0,SSW,8.1,-,N/A,,Clear,210,2013-09-18 20:53:00
5:53 PM,62.1,43.0,50,30.24,10.0,South,4.6,-,N/A,,Clear,190,2013-09-18 21:53:00
6:53 PM,57.9,44.1,60,30.24,10.0,SSW,3.5,-,N/A,,Clear,210,2013-09-18 22:53:00
7:53 PM,51.1,44.1,77,30.25,10.0,Calm,Calm,-,N/A,,Clear,0,2013-09-18 23:53:00
8:53 PM,46.9,43.0,86,30.24,10.0,Calm,Calm,-,N/A,,Clear,0,2013-09-19 00:53:00
9:53 PM,45.0,41.0,86,30.24,10.0,Calm,Calm,-,N/A,,Clear,0,2013-09-19 01:53:00
10:53 PM,44.1,41.0,89,30.23,10.0,Calm,Calm,-,N/A,,Clear,0,2013-09-19 02:53:00
11:53 PM,44.1,39.9,85,30.22,10.0,Calm,Calm,-,N/A,,Clear,0,2013-09-19 03:53:00